Location: Bismarck
(46.7731°N, 100.8200°W)
Time: 07:19:32
(UTC-06:00)

ISS - Visible Passes

Search period start: 23 November 2017 00:00
Search period end: 03 December 2017 00:00
Orbit: 402 x 407 km, 51.6° (Epoch: 23 November)

Date Brightness Start Highest point End Pass type
(mag) Time Alt. Az. Time Alt. Az. Time Alt. Az.
26 Nov -1.4 19:07:41 10° S 19:08:32 15° S 19:08:32 15° S visible
27 Nov -1.6 18:16:39 10° SSE 18:18:10 13° SE 18:18:36 12° SE visible
27 Nov -0.7 19:50:53 10° SW 19:51:17 13° SW 19:51:17 13° SW visible
28 Nov -2.9 18:58:44 10° SW 19:01:16 38° S 19:01:16 38° S visible
29 Nov -2.4 18:06:51 10° SSW 18:09:38 26° SE 18:11:10 18° E visible
29 Nov -1.1 19:42:40 10° WSW 19:43:50 20° W 19:43:50 20° W visible
30 Nov -4.0 18:50:15 10° WSW 18:53:31 86° SSE 18:53:39 81° E visible
01 Dec -3.4 17:57:59 10° SW 18:01:11 52° SSE 18:03:25 18° ENE visible
01 Dec -1.4 19:34:36 10° W 19:36:04 23° WNW 19:36:04 23° WNW visible
02 Dec -3.5 18:42:00 10° W 18:45:15 56° NNW 18:45:47 48° NNE visible
